THY1453 EDDM-LOWW

Flight info

Callsign THY1453
Flight time 0h 42m
Altitude 23000
Route KIRDI2E/08R KIRDI DCT BUWOQ DCT MASUR MASUR3W
Aircraft A320/M-SDE3FGHIRWY/LB1

Departure

Time 2026-05-01 12:27
Airport Munich Airport (EDDM)

Arrival

Time 2026-05-01 13:10
Airport Vienna International Airport (LOWW)
Time Latitude Longitude Altitude Speed Heading
2026-05-01 11:44 48.35411 11.79295 1467 ft 0 kts 273°
2026-05-01 12:02 48.35410 11.79320 1458 ft 2 kts 273°
2026-05-01 12:02 48.35409 11.79346 1464 ft 2 kts 273°
2026-05-01 12:02 48.35408 11.79372 1462 ft 2 kts 273°
2026-05-01 12:02 48.35407 11.79397 1458 ft 2 kts 273°
2026-05-01 12:03 48.35406 11.79422 1456 ft 2 kts 273°
2026-05-01 12:03 48.35408 11.79446 1456 ft 2 kts 217°
2026-05-01 12:03 48.35416 11.79454 1456 ft 0 kts 182°
2026-05-01 12:12 48.35388 11.79461 1459 ft 13 kts 168°
2026-05-01 12:12 48.35256 11.79487 1464 ft 27 kts 174°
2026-05-01 12:12 48.35117 11.79516 1463 ft 9 kts 172°
2026-05-01 12:13 48.35050 11.79531 1467 ft 11 kts 171°
2026-05-01 12:13 48.34984 11.79538 1466 ft 5 kts 176°
2026-05-01 12:13 48.34942 11.79542 1467 ft 7 kts 176°
2026-05-01 12:13 48.34889 11.79552 1465 ft 8 kts 171°
2026-05-01 12:14 48.34821 11.79564 1467 ft 11 kts 180°
2026-05-01 12:14 48.34794 11.79555 1466 ft 5 kts 187°
2026-05-01 12:14 48.34782 11.79464 1459 ft 13 kts 265°
2026-05-01 12:14 48.34772 11.79319 1463 ft 14 kts 262°
2026-05-01 12:15 48.34754 11.79115 1467 ft 26 kts 263°
2026-05-01 12:15 48.34727 11.78777 1463 ft 38 kts 263°
2026-05-01 12:15 48.34695 11.78370 1456 ft 40 kts 263°
2026-05-01 12:15 48.34664 11.77958 1462 ft 39 kts 264°
2026-05-01 12:16 48.34636 11.77573 1457 ft 33 kts 264°
2026-05-01 12:16 48.34618 11.77324 1466 ft 9 kts 263°
2026-05-01 12:16 48.34614 11.77275 1466 ft 1 kts 263°
2026-05-01 12:17 48.34599 11.77087 1466 ft 27 kts 263°
2026-05-01 12:17 48.34578 11.76798 1463 ft 29 kts 263°
2026-05-01 12:18 48.34558 11.76542 1466 ft 24 kts 263°
2026-05-01 12:18 48.34538 11.76285 1462 ft 26 kts 263°
2026-05-01 12:18 48.34517 11.76017 1464 ft 23 kts 263°
2026-05-01 12:18 48.34500 11.75825 1466 ft 13 kts 256°
2026-05-01 12:19 48.34462 11.75776 1463 ft 1 kts 184°
2026-05-01 12:19 48.34460 11.75775 1463 ft 0 kts 184°
2026-05-01 12:19 48.34400 11.75800 1464 ft 13 kts 149°
2026-05-01 12:19 48.34352 11.75909 1468 ft 12 kts 110°
2026-05-01 12:20 48.34322 11.76007 1466 ft 9 kts 114°
2026-05-01 12:20 48.34314 11.76034 1469 ft 0 kts 114°
2026-05-01 12:23 48.34293 11.76106 1469 ft 20 kts 114°
2026-05-01 12:23 48.34248 11.76260 1465 ft 0 kts 113°
2026-05-01 12:24 48.34228 11.76331 1466 ft 15 kts 113°
2026-05-01 12:25 48.34182 11.76494 1467 ft 18 kts 107°
2026-05-01 12:25 48.34182 11.76569 1468 ft 0 kts 81°
2026-05-01 12:26 48.34182 11.76570 1468 ft 1 kts 81°
2026-05-01 12:26 48.34206 11.76816 1460 ft 65 kts 83°
2026-05-01 12:27 48.34285 11.77915 1470 ft 141 kts 84°
2026-05-01 12:27 48.34507 11.81492 2547 ft 194 kts 85°
2026-05-01 12:28 48.34820 11.85892 3877 ft 223 kts 83°
2026-05-01 12:28 48.35013 11.88198 4741 ft 227 kts 84°
2026-05-01 12:28 48.35332 11.93014 6518 ft 235 kts 98°
2026-05-01 12:29 48.34843 11.95450 7021 ft 255 kts 112°
2026-05-01 12:29 48.34133 11.97942 7322 ft 263 kts 113°
2026-05-01 12:29 48.32627 12.02926 7376 ft 261 kts 114°
2026-05-01 12:30 48.31129 12.07906 7372 ft 262 kts 113°
2026-05-01 12:30 48.30379 12.10432 7376 ft 264 kts 113°
2026-05-01 12:30 48.29639 12.12934 7376 ft 262 kts 113°
2026-05-01 12:31 48.29051 12.15515 7378 ft 259 kts 97°
2026-05-01 12:31 48.28931 12.18181 7372 ft 260 kts 93°
2026-05-01 12:31 48.28841 12.20921 7557 ft 268 kts 93°
2026-05-01 12:31 48.28752 12.23707 8503 ft 266 kts 92°
2026-05-01 12:32 48.28664 12.26500 9426 ft 268 kts 91°
2026-05-01 12:32 48.28490 12.32220 10727 ft 289 kts 91°
2026-05-01 12:32 48.28394 12.35363 10938 ft 312 kts 91°
2026-05-01 12:33 48.28288 12.38706 11150 ft 332 kts 91°
2026-05-01 12:33 48.28175 12.42227 11679 ft 341 kts 91°
2026-05-01 12:33 48.28059 12.45812 12344 ft 346 kts 91°
2026-05-01 12:33 48.27940 12.49412 13016 ft 349 kts 91°
2026-05-01 12:34 48.27816 12.53118 13389 ft 363 kts 91°
2026-05-01 12:34 48.27802 12.56997 13522 ft 379 kts 82°
2026-05-01 12:34 48.28174 12.61011 13664 ft 396 kts 80°
2026-05-01 12:34 48.28577 12.65171 13983 ft 406 kts 80°
2026-05-01 12:35 48.28985 12.69379 14454 ft 410 kts 80°
2026-05-01 12:35 48.29393 12.73633 14959 ft 412 kts 80°
2026-05-01 12:35 48.29797 12.77861 15442 ft 415 kts 80°
2026-05-01 12:35 48.30208 12.82165 15913 ft 417 kts 80°
2026-05-01 12:36 48.30620 12.86489 16383 ft 419 kts 80°
2026-05-01 12:36 48.31033 12.90852 16846 ft 421 kts 80°
2026-05-01 12:36 48.31444 12.95228 17302 ft 424 kts 81°
2026-05-01 12:36 48.31854 12.99616 17771 ft 426 kts 80°
2026-05-01 12:37 48.32261 13.03973 18233 ft 427 kts 80°
2026-05-01 12:37 48.32674 13.08418 18659 ft 429 kts 81°
2026-05-01 12:37 48.33090 13.12892 19024 ft 432 kts 80°
2026-05-01 12:37 48.33501 13.17323 19386 ft 433 kts 80°
2026-05-01 12:38 48.33913 13.21817 19732 ft 435 kts 80°
2026-05-01 12:38 48.34326 13.26338 20068 ft 437 kts 81°
2026-05-01 12:38 48.34735 13.30886 20504 ft 435 kts 81°
2026-05-01 12:38 48.35129 13.35319 21599 ft 419 kts 80°
2026-05-01 12:39 48.35508 13.39581 22738 ft 404 kts 80°
2026-05-01 12:39 48.35875 13.43694 23931 ft 389 kts 79°
2026-05-01 12:39 48.36224 13.47611 24974 ft 374 kts 79°
2026-05-01 12:39 48.36559 13.51406 26047 ft 358 kts 79°
2026-05-01 12:40 48.36877 13.55028 27142 ft 340 kts 78°
2026-05-01 12:40 48.37177 13.58463 28286 ft 320 kts 78°
2026-05-01 12:40 48.37458 13.61669 29436 ft 300 kts 78°
2026-05-01 12:40 48.37736 13.64804 29758 ft 305 kts 77°
2026-05-01 12:41 48.38024 13.67997 30046 ft 308 kts 77°
2026-05-01 12:41 48.38307 13.71157 30374 ft 310 kts 77°
2026-05-01 12:41 48.38593 13.74395 30662 ft 312 kts 78°
2026-05-01 12:41 48.38876 13.77648 30959 ft 314 kts 78°
2026-05-01 12:42 48.39158 13.80917 31248 ft 315 kts 78°
2026-05-01 12:42 48.39437 13.84195 31534 ft 317 kts 78°
2026-05-01 12:42 48.39701 13.87504 31819 ft 318 kts 79°
2026-05-01 12:42 48.39944 13.90824 32149 ft 320 kts 79°
2026-05-01 12:43 48.40172 13.94111 32493 ft 319 kts 79°
2026-05-01 12:43 48.40398 13.97438 32809 ft 320 kts 79°
2026-05-01 12:43 48.40622 14.00790 33094 ft 321 kts 79°
2026-05-01 12:43 48.40845 14.04146 33347 ft 322 kts 79°
2026-05-01 12:44 48.41069 14.07473 33588 ft 324 kts 79°
2026-05-01 12:44 48.41296 14.10853 33844 ft 325 kts 79°
2026-05-01 12:44 48.41753 14.17654 34338 ft 327 kts 79°
2026-05-01 12:45 48.42216 14.24512 34741 ft 330 kts 79°
2026-05-01 12:45 48.42444 14.27928 34919 ft 332 kts 79°
2026-05-01 12:45 48.42672 14.31396 35123 ft 333 kts 79°
2026-05-01 12:46 48.42901 14.34885 35318 ft 335 kts 79°
2026-05-01 12:46 48.43129 14.38391 35539 ft 336 kts 79°
2026-05-01 12:46 48.43356 14.41909 35751 ft 337 kts 79°
2026-05-01 12:46 48.43585 14.45431 35960 ft 338 kts 79°
2026-05-01 12:47 48.43812 14.48923 36145 ft 340 kts 79°
2026-05-01 12:47 48.44040 14.52475 36346 ft 341 kts 80°
2026-05-01 12:47 48.44502 14.59721 36389 ft 354 kts 80°
2026-05-01 12:48 48.44745 14.63479 35736 ft 367 kts 80°
2026-05-01 12:48 48.44997 14.67387 34736 ft 381 kts 80°
2026-05-01 12:48 48.45254 14.71439 33607 ft 394 kts 80°
2026-05-01 12:48 48.45513 14.75572 32389 ft 408 kts 80°
2026-05-01 12:49 48.45778 14.79886 31353 ft 417 kts 81°
2026-05-01 12:49 48.46043 14.84259 30473 ft 422 kts 80°
2026-05-01 12:49 48.46308 14.88679 29523 ft 423 kts 81°
2026-05-01 12:49 48.46571 14.93102 28563 ft 424 kts 81°
2026-05-01 12:50 48.46834 14.97538 27577 ft 425 kts 81°
2026-05-01 12:50 48.47098 15.01990 26585 ft 427 kts 81°
2026-05-01 12:50 48.47355 15.06368 25901 ft 421 kts 81°
2026-05-01 12:50 48.47610 15.10736 25215 ft 416 kts 81°
2026-05-01 12:51 48.47862 15.15074 24548 ft 411 kts 81°
2026-05-01 12:51 48.48110 15.19364 23878 ft 407 kts 81°
2026-05-01 12:51 48.48596 15.27732 22384 ft 399 kts 82°
2026-05-01 12:52 48.48837 15.31881 21685 ft 395 kts 81°
2026-05-01 12:52 48.49305 15.40046 20326 ft 388 kts 82°
2026-05-01 12:52 48.49529 15.44084 19688 ft 385 kts 82°
2026-05-01 12:53 48.49968 15.52099 18486 ft 381 kts 82°
2026-05-01 12:53 48.50185 15.56063 17878 ft 378 kts 82°
2026-05-01 12:53 48.50399 15.60004 17323 ft 375 kts 82°
2026-05-01 12:54 48.50608 15.63875 16799 ft 372 kts 82°
2026-05-01 12:54 48.50446 15.71632 15705 ft 369 kts 91°
2026-05-01 12:54 48.50220 15.75480 15160 ft 366 kts 91°
2026-05-01 12:55 48.49773 15.83059 14060 ft 359 kts 91°
2026-05-01 12:55 48.49555 15.86749 13443 ft 356 kts 91°
2026-05-01 12:55 48.49333 15.90444 12806 ft 353 kts 91°
2026-05-01 12:56 48.49111 15.94121 12182 ft 350 kts 91°
2026-05-01 12:56 48.48888 15.97770 11577 ft 348 kts 91°
2026-05-01 12:56 48.48667 16.01391 10968 ft 346 kts 92°
2026-05-01 12:56 48.48227 16.04966 10375 ft 347 kts 103°
2026-05-01 12:57 48.47314 16.08302 9987 ft 342 kts 113°
2026-05-01 12:57 48.44331 16.13722 9495 ft 331 kts 137°
2026-05-01 12:57 48.42506 16.15748 9374 ft 320 kts 140°
2026-05-01 12:58 48.40726 16.17662 9235 ft 309 kts 140°
2026-05-01 12:58 48.38997 16.19510 9109 ft 300 kts 140°
2026-05-01 12:58 48.37320 16.21297 8977 ft 291 kts 140°
2026-05-01 12:59 48.34105 16.24726 8714 ft 274 kts 140°
2026-05-01 12:59 48.32588 16.26344 8587 ft 267 kts 140°
2026-05-01 12:59 48.29636 16.29493 8332 ft 253 kts 140°
2026-05-01 13:00 48.26841 16.32478 8074 ft 239 kts 140°
2026-05-01 13:00 48.25496 16.33914 7850 ft 236 kts 140°
2026-05-01 13:01 48.22852 16.36737 7314 ft 234 kts 141°
2026-05-01 13:01 48.21527 16.38152 7054 ft 233 kts 141°
2026-05-01 13:01 48.18887 16.40957 6475 ft 232 kts 141°
2026-05-01 13:02 48.17565 16.42353 6177 ft 231 kts 141°
2026-05-01 13:07 48.00385 16.65746 2956 ft 138 kts 307°
2026-05-01 13:07 48.01025 16.64715 2962 ft 135 kts 318°
2026-05-01 13:07 48.01679 16.63715 2957 ft 136 kts 317°
2026-05-01 13:08 48.02349 16.62739 2857 ft 132 kts 324°
2026-05-01 13:08 48.03118 16.62000 2449 ft 132 kts 335°
2026-05-01 13:08 48.03998 16.61404 1825 ft 144 kts 340°
2026-05-01 13:08 48.04872 16.60927 1801 ft 130 kts 344°
2026-05-01 13:09 48.05754 16.60501 1470 ft 138 kts 345°
2026-05-01 13:09 48.06727 16.60063 815 ft 147 kts 346°
2026-05-01 13:09 48.07640 16.59647 810 ft 135 kts 346°
2026-05-01 13:09 48.08485 16.59295 730 ft 119 kts 343°
2026-05-01 13:10 48.09269 16.58979 631 ft 114 kts 339°
2026-05-01 13:10 48.09765 16.58748 629 ft 19 kts 346°
2026-05-01 13:10 48.09964 16.58655 621 ft 43 kts 335°
2026-05-01 13:10 48.10097 16.58373 622 ft 33 kts 310°
2026-05-01 13:11 48.10307 16.58251 614 ft 33 kts 346°
2026-05-01 13:11 48.10526 16.58151 625 ft 32 kts 344°
2026-05-01 13:11 48.10745 16.58064 624 ft 32 kts 346°
2026-05-01 13:11 48.10960 16.57969 623 ft 32 kts 343°
2026-05-01 13:12 48.11178 16.57878 613 ft 33 kts 345°
2026-05-01 13:12 48.11400 16.57786 618 ft 33 kts 343°
2026-05-01 13:12 48.11540 16.57557 616 ft 31 kts 296°
2026-05-01 13:12 48.11600 16.57261 616 ft 21 kts 259°
2026-05-01 13:13 48.11535 16.57133 618 ft 11 kts 248°
2026-05-01 13:13 48.11567 16.56950 614 ft 29 kts 303°
2026-05-01 13:13 48.11667 16.56908 609 ft 7 kts 41°
2026-05-01 13:13 48.11684 16.56911 617 ft 0 kts 10°
2026-05-01 13:21 0.01191 0.00002 53808 ft 0 kts